Regional Weather Roundup
Issued by NWS Lake Charles, LA

Home | Current Version | Previous Version | Text Only | Print | Product List | Glossary On
Versions: 1 2 3 4 5 6 7 8 9 10 11 12 13 14 15 16 17 18 19 20 21 22 23 24 25 26 27
000
ASUS44 KLCH 200810
RWRLCH
RWRLCH
REGIONAL WEATHER ROUNDUP
NATIONAL WEATHER SERVICE LAKE CHARLES LA
300 AM CDT SUN APR 20 2014

Note: "fair" indicates few or no clouds below 12,000 feet with no
significant weather and/or obstructions to visibility.


ACROSS SOUTHEAST TEXAS

CITY           SKY/WX    TMP DP  RH WIND       PRES   REMARKS
BEAUMONT       FOG       58  56  93 CALM      30.13F VSB 1/4
BEAUMONT CITY  FOG       58  58 100 W8        30.15S VSB 1
ORANGE         MOSUNNY   57  57 100 CALM      30.16S FOG
JASPER         PTCLDY    55  54  97 CALM      30.17S FOG
$$

ACROSS CENTRAL LOUISIANA

CITY           SKY/WX    TMP DP  RH WIND       PRES   REMARKS
LEESVILLE      PTCLDY    56  54  93 CALM      30.15S
FULLERTON        N/A     57  53  86 CALM      30.12F
ALEXANDRIA INT CLEAR     58  55  90 SW3       30.13S
ESLER FIELD    CLEAR     53  51  93 CALM      30.14S
DERIDDER         N/A     58  56  91 CALM      30.17S
OAKDALE        PTSUNNY   52  51  95 CALM      30.15S
OPELOUSAS        N/A     54  53  97 CALM      30.14S
$$

ACROSS SOUTHWEST AND SOUTH CENTRAL LOUISIANA

CITY           SKY/WX    TMP DP  RH WIND       PRES   REMARKS
SULPHUR        PTSUNNY   59  59  99 CALM      30.15F FOG
LAKE CHARLES   MOCLDY    57  56  96 CALM      30.15S FOG
CHENNAULT INT  MOCLDY    60  58  91 CALM      30.16S
CAMERON PHI      N/A     64  61  88 CALM      30.15S
DEQUINCY         N/A     55  53  93 CALM      30.15S
JENNINGS         N/A     59  58  96 CALM      30.15S
LAFAYETTE      CLEAR     59  54  83 CALM      30.14R
NEW IBERIA     CLEAR     58  55  90 CALM      30.14R
ABBEVILLE        N/A    N/A N/A N/A CALM      30.14S
PATTERSON      CLEAR     57  55  94 CALM      30.16R
SALT POINT       N/A     68  64  87 CALM      30.12R
$$

SELECTED SITES ACROSS THE REGION

CITY           SKY/WX    TMP DP  RH WIND       PRES   REMARKS
HOUSTON BUSH   MOCLDY    60  59  96 CALM      30.13F
HOUSTON HOBBY  PTCLDY    61  59  94 CALM      30.12F
GALVESTON      PTCLDY    64  64 100 S6        30.14F
COLLEGE STAT   PTCLDY    62  59  90 SE3       30.13F
CONROE         PTCLDY    56  54  93 CALM      30.15S
HUNTSVILLE     PTCLDY    62  58  86 CALM      30.13F
LUFKIN         PTCLDY    60  56  86 CALM      30.14F
SHREVEPORT     MOCLDY    58  54  86 CALM      30.13F
MONROE         PTCLDY    56  55  97 CALM      30.15S FOG
NATCHEZ MS     PTCLDY    54  50  87 CALM      30.14R
BATON ROUGE    CLEAR     57  52  83 CALM      30.13R
N.O. INTL ARPT CLEAR     61  57  87 W3        30.11S
SLIDELL        CLEAR     54  51  90 CALM      30.10R
$$

MARINE REPORTS

STATION/POSITION TIME  TEMP    WIND        PRES    VSBY  WAVE
                       AIR SEA DIR/SP/G                  HT/PER
                 (UTC) (F)     (DEG/KT/KT) (MB)    (MI)  (FT/S)
BUOY 30 S HIGH I 0800   67 67  200/  4/  6 1020.2F         1/ 8
SEA RIM ST PARK  0800   60     310/  3/  3 1021.0F
PORT ARTHUR      0800      67  280/  1/  2 1020.5F
SABINE PASS N    0800   62 67  310/  4/  4 1020.4F
TEXAS POINT      0800   63 67  290/  4/  5 1020.7F
CALCASIEU PASS   0800   66 69  280/  6/  7 1021.8S
LK CHARLES BEACH 0800   65 67              1021.5S
MARSH ISLAND     0700   67     290/  7/  8   N/A
FRESH WATER LOCK 0800   63 69  280/  5/  5 1020.6S
AMERADA PASS     0800   64 62  270/  2/  5 1020.1R
$$



USA.gov is the U.S. government's official web portal to all federal, state and local government web resources and services.